BGSFCYDF [SWR571]

Guest
Details From BGSF - Kangerlussuaq
To CYDF - Deer Lake
Flight Number SWR571
Tags Real Commercial Decoded
Created
Modified
Stats Distance 1,093 nm / 2,025 km
Max Altitude 5,242 ft / 1,598 m
Waypoints 4
Social Downloads 14
Likes 0
Share VATSIM

Download

Looking for another format? Having issues loading an existing format? Contact us
Advertisement - Login to hide

Notes

Decoded

Route

BGSF SUKAK OMVIX CYDF

ID Type Via Altitude Latitude Longitude Leg Dist Tot Dist Heading (true) Name
O BGSF APT - 0 ft / 0 m 67.00561˚ -50.74307˚ - 0 nm - -
SUKAK FIX - 3,052 ft / 930 m 66.94250˚ -50.48917˚ 7 nm 7 nm 122° / 123° -
OMVIX FIX - 5,242 ft / 1,598 m 49.38033˚ -57.30400˚ 1075 nm 1082 nm 195° / 189° -
O CYDF APT - 0 ft / 0 m 49.20533˚ -57.40033˚ 11 nm 1093 nm 200° / 200° -

Altitude Profile

Advertisement - Login to hide

Weather


0- 5 10 15 20 25 30 35+ Temperature / ° C

Clouds and Precipitation
Forecast for 2017-12-16 00:00 UTC. Updated an hour ago

Ground ~20,000 ft ~40,000 ft Winds

BGSF

Details ICAO BGSF (SFJ)
Name Kangerlussuaq
Region Greenland
Timezone America/Godthab (UTC-3.0)
Stats Elevation 165 ft / 50 m (AMSL)
Location 67.011605° -50.714721°
Runways 2
Magnetic Variation 29.034° W

METAR

BGSF 151950Z AUTO 07011KT 9999NDV NCD M12/M16 Q0996

Decode

TAF

TAF AMD BGSF 151218Z 1512/1618 06010KT 9999 FEW200 TEMPO 1512/1518 2500 -SN SCT008 BKN010 TEMPO 1518/1618 -SN BKN040

Decode

Departure Runways

ID Width Length Bearing (true) Bearing (mag) Surface Threshold Offset Overrun Length
09 197 ft / 60 m 9,169 ft / 2,795 m 61.57° 90.60° Asphalt 0 ft / 0 m 509 ft / 155 m
10 197 ft / 60 m 9,187 ft / 2,800 m 61.55° 90.58° Asphalt 0 ft / 0 m 0 ft / 0 m
27 197 ft / 60 m 9,169 ft / 2,795 m 241.63° 270.66° Asphalt 0 ft / 0 m 171 ft / 52 m
28 197 ft / 60 m 9,187 ft / 2,800 m 241.60° 270.63° Asphalt 0 ft / 0 m 0 ft / 0 m

CYDF

Details ICAO CYDF (YDF)
Name DEER LAKE
Region Canada
Timezone America/St_Johns (UTC-3.5)
Stats Elevation 72 ft / 22 m (AMSL)
Location 49.211000° -57.391246°
Runways 1
Magnetic Variation 19.133° W

METAR

CYDF 152000Z 23021G30KT 3SM -SHSN BKN025 OVC040 M04/M07 A2950 RMK CU5SC3 SLP991

Decode

TAF

TAF CYDF 151941Z 1520/1608 22025G40KT P6SM -SHSN BKN025 TEMPO 1520/1602 2SM -SHSN BLSN BKN020 PROB40 1520/1602 1SM -SHSN BLSN VV010 FM160200 24020G35KT P6SM -SHSN BKN025 TEMPO 1602/1608 4SM -SHSN BKN020 BECMG 1604/1606 23015G25KT RMK NXT FCST BY 160200Z

Decode

Destination Runways

ID Width Length Bearing (true) Bearing (mag) Surface Threshold Offset Overrun Length
07 151 ft / 46 m 5,989 ft / 1,825 m 46.32° 65.45° Asphalt 0 ft / 0 m 0 ft / 0 m
25 151 ft / 46 m 5,989 ft / 1,825 m 226.34° 245.47° Asphalt 0 ft / 0 m 0 ft / 0 m

Approach Navaids

Runway Type Ident Frequency Range Bearing (true) Bearing (mag) Slope Elevation
25 Localiser IDF 110.30 MHz 18 nm / 33 km 226.30° 245.43° - 72 ft / 22 m (AMSL)
25 Glidescope IDF 110.30 MHz 10 nm / 19 km 249.00° 268.13° 2.70° 72 ft / 22 m (AMSL)

Popular Alternatives